When you browse on this site, cookies collect data to enhance your experience and personalize the content and advertising you see.
Visit our Privacy Policy to learn more. By continuing to use the site, you agree to this use of cookies and data.
  • In Austria
  • List of Countries
  • For 7 days
  • Water Temperature
  • Satellite Maps
  • Weather Map
  • News
  • Weather Widgets
  • user-avatar
    Login

    Hourly Weather Innsbruck

    Today, 20 July, Saturday

    Time Temperature Precipitation Wind Pressure Humidity
    00:00 +8°C° 0 mm 1 mps 598 mmHg 90%
    01:00 +7°C° 0 mm 2 mps 598 mmHg 90%
    02:00 +7°C° 0 mm 2 mps 598 mmHg 89%
    03:00 +7°C° 0 mm 2 mps 598 mmHg 89%
    04:00 +7°C° 0 mm 2 mps 598 mmHg 88%
    05:00 +8°C° 0 mm 2 mps 599 mmHg 86%
    06:00 +11°C° 0 mm 1 mps 600 mmHg 83%
    07:00 +13°C° 0 mm 1 mps 601 mmHg 80%
    08:00 +15°C° 0.1 mm 1 mps 601 mmHg 72%
    09:00 +18°C° 0.1 mm 1 mps 602 mmHg 63%
    10:00 +20°C° 0.1 mm 1 mps 603 mmHg 54%
    11:00 +21°C° 0.5 mm 1 mps 603 mmHg 52%
    12:00 +21°C° 0.5 mm 1 mps 603 mmHg 50%
    13:00 +21°C° 0.5 mm 1 mps 603 mmHg 48%
    14:00 +21°C° 0.7 mm 1 mps 603 mmHg 50%
    15:00 +20°C° 0.7 mm 1 mps 603 mmHg 52%
    16:00 +20°C° 0.7 mm 1 mps 603 mmHg 55%
    17:00 +18°C° 2.7 mm 1 mps 602 mmHg 66%
    18:00 +15°C° 2.7 mm 1 mps 601 mmHg 78%
    19:00 +13°C° 2.7 mm 1 mps 601 mmHg 90%
    20:00 +12°C° 0.4 mm 1 mps 600 mmHg 91%
    21:00 +10°C° 0.4 mm 1 mps 600 mmHg 91%
    22:00 +9°C° 0.4 mm 1 mps 600 mmHg 91%
    23:00 +9°C° 0 mm 1 mps 600 mmHg 89%

    Tomorrow, 21 July, Sunday

    Time Temperature Precipitation Wind Pressure Humidity
    00:00 +10°C° 0 mm 1 mps 601 mmHg 88%
    01:00 +10°C° 0 mm 1 mps 601 mmHg 86%
    02:00 +10°C° 0 mm 1 mps 601 mmHg 85%
    03:00 +10°C° 0 mm 1 mps 600 mmHg 85%
    04:00 +10°C° 0 mm 1 mps 600 mmHg 85%
    05:00 +11°C° 0 mm 1 mps 601 mmHg 82%
    06:00 +11°C° 0 mm 0 mps 602 mmHg 79%
    07:00 +12°C° 0 mm 0 mps 602 mmHg 77%
    08:00 +14°C° 0.4 mm 1 mps 603 mmHg 75%
    09:00 +15°C° 0.4 mm 1 mps 604 mmHg 74%
    10:00 +16°C° 0.4 mm 2 mps 604 mmHg 72%
    11:00 +16°C° 0.9 mm 2 mps 604 mmHg 74%
    12:00 +17°C° 0.9 mm 2 mps 604 mmHg 75%
    13:00 +17°C° 0.9 mm 2 mps 604 mmHg 77%
    14:00 +17°C° 1 mm 2 mps 604 mmHg 77%
    15:00 +16°C° 1 mm 2 mps 604 mmHg 78%
    16:00 +16°C° 1 mm 2 mps 605 mmHg 78%
    17:00 +16°C° 0.3 mm 2 mps 604 mmHg 81%
    18:00 +15°C° 0.3 mm 1 mps 604 mmHg 84%
    19:00 +14°C° 0.3 mm 1 mps 604 mmHg 88%
    20:00 +12°C° 0.1 mm 1 mps 603 mmHg 90%
    21:00 +11°C° 0.1 mm 1 mps 603 mmHg 92%
    22:00 +8°C° 0.1 mm 0 mps 603 mmHg 95%
    23:00 +8°C° 0 mm 0 mps 603 mmHg 94%

    Day after tomorrow, 22 July, Monday

    Time Temperature Precipitation Wind Pressure Humidity
    00:00 +7°C° 0 mm 0 mps 602 mmHg 93%
    01:00 +8°C° 0 mm 1 mps 602 mmHg 93%
    02:00 +8°C° 0 mm 1 mps 602 mmHg 92%
    03:00 +8°C° 0 mm 1 mps 602 mmHg 91%
    04:00 +7°C° 0 mm 1 mps 602 mmHg 90%
    05:00 +8°C° 0 mm 0 mps 603 mmHg 86%
    06:00 +10°C° 0 mm 0 mps 603 mmHg 83%
    07:00 +11°C° 0 mm 0 mps 604 mmHg 80%
    08:00 +15°C° 0 mm 1 mps 605 mmHg 70%
    09:00 +18°C° 0 mm 1 mps 606 mmHg 61%
    10:00 +20°C° 0 mm 1 mps 607 mmHg 52%
    11:00 +21°C° 0 mm 1 mps 608 mmHg 48%
    12:00 +21°C° 0 mm 2 mps 608 mmHg 44%
    13:00 +23°C° 0 mm 2 mps 608 mmHg 40%
    14:00 +23°C° 0 mm 2 mps 608 mmHg 41%
    15:00 +23°C° 0 mm 2 mps 607 mmHg 43%
    16:00 +21°C° 0 mm 2 mps 607 mmHg 44%
    17:00 +20°C° 0 mm 2 mps 606 mmHg 56%
    18:00 +18°C° 0 mm 2 mps 606 mmHg 67%
    19:00 +16°C° 0 mm 1 mps 605 mmHg 78%
    20:00 +14°C° 0 mm 1 mps 604 mmHg 84%
    21:00 +13°C° 0 mm 1 mps 604 mmHg 89%
    22:00 +10°C° 0 mm 0 mps 603 mmHg 95%
    23:00 +10°C° 0 mm 0 mps 603 mmHg 94%

    23 July, Tuesday

    Time Temperature Precipitation Wind Pressure Humidity
    00:00 +9°C° 0 mm 0 mps 603 mmHg 94%
    01:00 +9°C° 0 mm 0 mps 603 mmHg 94%
    02:00 +9°C° 0 mm 0 mps 602 mmHg 93%
    03:00 +8°C° 0 mm 0 mps 602 mmHg 92%
    04:00 +8°C° 0 mm 0 mps 602 mmHg 91%
    05:00 +10°C° 0 mm 0 mps 603 mmHg 85%
    06:00 +12°C° 0 mm 0 mps 604 mmHg 78%
    07:00 +14°C° 0 mm 0 mps 604 mmHg 72%
    08:00 +16°C° 0 mm 0 mps 605 mmHg 63%
    09:00 +20°C° 0 mm 1 mps 606 mmHg 53%
    10:00 +22°C° 0 mm 1 mps 607 mmHg 44%
    11:00 +23°C° 0 mm 1 mps 607 mmHg 41%
    12:00 +24°C° 0 mm 2 mps 607 mmHg 38%
    13:00 +25°C° 0 mm 2 mps 607 mmHg 35%
    14:00 +25°C° 0 mm 2 mps 607 mmHg 36%
    15:00 +24°C° 0 mm 2 mps 607 mmHg 37%
    16:00 +24°C° 0 mm 2 mps 606 mmHg 38%
    17:00 +23°C° 0 mm 2 mps 606 mmHg 49%
    18:00 +21°C° 0 mm 1 mps 605 mmHg 60%
    19:00 +19°C° 0 mm 1 mps 604 mmHg 71%
    20:00 +16°C° 0 mm 1 mps 603 mmHg 77%
    21:00 +14°C° 0 mm 1 mps 603 mmHg 82%
    22:00 +11°C° 0 mm 0 mps 602 mmHg 88%
    23:00 +12°C° 0 mm 1 mps 602 mmHg 87%

    24 July, Wednesday

    Time Temperature Precipitation Wind Pressure Humidity
    00:00 +12°C° 0 mm 1 mps 602 mmHg 87%
    01:00 +12°C° 0 mm 1 mps 602 mmHg 86%
    02:00 +11°C° 0 mm 1 mps 601 mmHg 87%
    03:00 +11°C° 0 mm 1 mps 601 mmHg 87%
    04:00 +11°C° 0 mm 1 mps 601 mmHg 88%
    05:00 +13°C° 0 mm 1 mps 602 mmHg 83%
    06:00 +14°C° 0 mm 0 mps 603 mmHg 77%
    07:00 +16°C° 0 mm 0 mps 604 mmHg 72%
    08:00 +18°C° 0 mm 0 mps 604 mmHg 63%
    09:00 +22°C° 0 mm 1 mps 605 mmHg 54%
    10:00 +24°C° 0 mm 1 mps 606 mmHg 46%
    11:00 +24°C° 0 mm 1 mps 606 mmHg 43%
    12:00 +25°C° 0 mm 1 mps 606 mmHg 40%
    13:00 +26°C° 0 mm 2 mps 606 mmHg 37%
    14:00 +26°C° 0 mm 2 mps 606 mmHg 39%
    15:00 +25°C° 0 mm 2 mps 606 mmHg 41%
    16:00 +25°C° 0 mm 2 mps 605 mmHg 43%
    17:00 +23°C° 0.1 mm 1 mps 604 mmHg 53%
    18:00 +21°C° 0.1 mm 1 mps 604 mmHg 64%
    19:00 +19°C° 0.1 mm 1 mps 603 mmHg 75%
    20:00 +18°C° 0.7 mm 1 mps 603 mmHg 79%
    21:00 +16°C° 0.7 mm 1 mps 602 mmHg 84%
    22:00 +14°C° 0.7 mm 1 mps 602 mmHg 88%
    23:00 +14°C° 0 mm 1 mps 602 mmHg 88%

    25 July, Thursday

    Time Temperature Precipitation Wind Pressure Humidity
    00:00 +14°C° 0 mm 1 mps 602 mmHg 88%
    01:00 +14°C° 0 mm 1 mps 602 mmHg 88%
    02:00 +13°C° 0.2 mm 1 mps 601 mmHg 88%
    03:00 +13°C° 0.2 mm 2 mps 601 mmHg 88%
    04:00 +13°C° 0.2 mm 2 mps 601 mmHg 89%
    05:00 +14°C° 0 mm 2 mps 601 mmHg 86%
    06:00 +15°C° 0 mm 1 mps 602 mmHg 83%
    07:00 +18°C° 0 mm 1 mps 602 mmHg 80%
    08:00 +20°C° 0.2 mm 1 mps 603 mmHg 72%
    09:00 +22°C° 0.2 mm 1 mps 604 mmHg 63%
    10:00 +24°C° 0.2 mm 1 mps 605 mmHg 55%
    11:00 +24°C° 1.1 mm 1 mps 605 mmHg 52%
    12:00 +25°C° 1.1 mm 1 mps 605 mmHg 50%
    13:00 +25°C° 1.1 mm 1 mps 605 mmHg 47%
    14:00 +25°C° 1.2 mm 1 mps 604 mmHg 51%
    15:00 +24°C° 1.2 mm 1 mps 604 mmHg 55%
    16:00 +23°C° 1.2 mm 1 mps 603 mmHg 59%
    17:00 +21°C° 0.9 mm 1 mps 602 mmHg 67%
    18:00 +18°C° 0.9 mm 0 mps 602 mmHg 75%
    19:00 +17°C° 0.9 mm 0 mps 601 mmHg 83%
    20:00 +16°C° 0.5 mm 0 mps 601 mmHg 85%
    21:00 +16°C° 0.5 mm 1 mps 601 mmHg 87%
    22:00 +14°C° 0.5 mm 1 mps 601 mmHg 88%
    23:00 +14°C° 0.1 mm 1 mps 601 mmHg 88%
    Show more